Location: Recife
(8.0585°S, 34.8848°W)
Time: 09:23:39
(UTC-03:00)

Injun/Solrad 3 - Pass Details

Date: 20 April 2026
Orbit: 868 x 988 km, 66.8° (Epoch: 12 May)

Event Time Altitude Azimuth Distance (km) Brightness Sun altitude
Rises 20:03:59 0° 237° (WSW) 3,452 11.4 -42.0°
Reaches altitude 10° 20:08:20 10° 268° (W) 2,514 10.8 -43.1°
Maximum altitude 20:10:16 12° 288° (WNW) 2,395 10.6 -43.6°
Drops below altitude 10° 20:12:14 10° 308° (NW) 2,519 10.6 -44.1°
Sets 20:16:38 0° 339° (NNW) 3,471 11.2 -45.1°
